| time (UTC) | temp F | wind direction | speed MPH | gust MPH | rain 1hr in | rain 24hr in | rain mn in | humidity % | barometer mb |
| 20260510125025 | 53 | 63 | 6.0 | 15.0 | 0.00 | 0.00 | 0.00 | 74 | 1013.5 |
| 20260510124045 | 54 | 46 | 7.0 | 14.0 | 0.00 | 0.00 | 0.00 | 71 | 1013.9 |
| 20260510123028 | 55 | 36 | 7.0 | 16.0 | 0.00 | 0.00 | 0.00 | 69 | 1013.8 |
| 20260510122056 | 55 | 57 | 6.0 | 14.0 | 0.00 | 0.00 | 0.00 | 68 | 1013.9 |
| 20260510121028 | 55 | 50 | 7.0 | 15.0 | 0.00 | 0.00 | 0.00 | 68 | 1013.8 |
| 20260510120018 | 56 | 39 | 6.0 | 14.0 | 0.00 | 0.00 | 0.00 | 67 | 1013.9 |
| 20260510115042 | 55 | 36 | 9.0 | 19.0 | 0.00 | 0.00 | 0.00 | 68 | 1014.0 |
| 20260510114019 | 55 | 27 | 9.0 | 16.0 | 0.00 | 0.00 | 0.00 | 69 | 1013.8 |
| 20260510113025 | 55 | 37 | 8.0 | 17.0 | 0.00 | 0.00 | 0.00 | 70 | 1013.8 |
| 20260510112042 | 55 | 38 | 9.0 | 23.0 | 0.00 | 0.00 | 0.00 | 70 | 1013.9 |
| 20260510111049 | 55 | 40 | 8.0 | 14.0 | 0.00 | 0.00 | 0.00 | 71 | 1014.0 |
| 20260510110034 | 54 | 49 | 8.0 | 16.0 | 0.00 | 0.00 | 0.00 | 72 | 1014.1 |
| 20260510105027 | 54 | 48 | 5.0 | 16.0 | 0.00 | 0.00 | 0.00 | 72 | 1014.3 |
| 20260510104045 | 54 | 47 | 9.0 | 16.0 | 0.00 | 0.00 | 0.00 | 72 | 1014.2 |
| 20260510103043 | 54 | 29 | 9.0 | 16.0 | 0.00 | 0.00 | 0.00 | 72 | 1014.4 |
| 20260510102040 | 54 | 34 | 7.0 | 16.0 | 0.00 | 0.00 | 0.00 | 72 | 1014.3 |
| 20260510101026 | 53 | 50 | 8.0 | 21.0 | 0.00 | 0.00 | 0.00 | 72 | 1014.3 |
| 20260510100021 | 53 | 34 | 7.0 | 16.0 | 0.00 | 0.00 | 0.00 | 72 | 1014.4 |
| 20260510095027 | 53 | 51 | 7.0 | 16.0 | 0.00 | 0.00 | 0.00 | 72 | 1014.2 |
| 20260510094034 | 53 | 35 | 8.0 | 18.0 | 0.00 | 0.00 | 0.00 | 73 | 1014.4 |
| 20260510093029 | 53 | 50 | 6.0 | 14.0 | 0.00 | 0.00 | 0.00 | 74 | 1014.4 |
| 20260510092019 | 53 | 65 | 6.0 | 15.0 | 0.00 | 0.00 | 0.00 | 75 | 1014.4 |
| 20260510091102 | 53 | 38 | 7.0 | 15.0 | 0.00 | 0.00 | 0.00 | 75 | 1014.6 |
| 20260510090018 | 52 | 38 | 8.0 | 16.0 | 0.00 | 0.00 | 0.00 | 76 | 1014.6 |
| 20260510085026 | 52 | 31 | 5.0 | 11.0 | 0.00 | 0.00 | 0.00 | 77 | 1014.5 |
| 20260510084022 | 52 | 42 | 10.0 | 18.0 | 0.00 | 0.00 | 0.00 | 77 | 1014.6 |
| 20260510083042 | 52 | 41 | 7.0 | 17.0 | 0.00 | 0.00 | 0.00 | 78 | 1014.6 |
| 20260510082056 | 52 | 40 | 7.0 | 16.0 | 0.00 | 0.00 | 0.00 | 79 | 1014.9 |
| 20260510081026 | 52 | 32 | 6.0 | 15.0 | 0.00 | 0.00 | 0.00 | 80 | 1014.7 |
| 20260510080018 | 51 | 32 | 5.0 | 14.0 | 0.00 | 0.00 | 0.00 | 80 | 1014.7 |
| 20260510075042 | 51 | 43 | 8.0 | 15.0 | 0.00 | 0.00 | 0.00 | 81 | 1014.6 |
| 20260510074019 | 51 | 43 | 7.0 | 13.0 | 0.00 | 0.00 | 0.00 | 81 | 1014.6 |
| 20260510073027 | 51 | 37 | 4.0 | 11.0 | 0.00 | 0.00 | 0.00 | 82 | 1014.6 |
| 20260510072019 | 51 | 47 | 6.0 | 14.0 | 0.00 | 0.00 | 0.00 | 83 | 1014.8 |
| 20260510071026 | 51 | 39 | 4.0 | 16.0 | 0.00 | 0.00 | 0.00 | 84 | 1014.7 |
| 20260510070034 | 50 | 47 | 5.0 | 11.0 | 0.00 | 0.00 | 0.00 | 84 | 1014.6 |
| 20260510065028 | 50 | 33 | 4.0 | 10.0 | 0.00 | 0.00 | 0.00 | 84 | 1014.5 |
| 20260510064018 | 50 | 32 | 5.0 | 10.0 | 0.00 | 0.00 | 0.00 | 85 | 1014.7 |
| 20260510063102 | 50 | 31 | 5.0 | 13.0 | 0.00 | 0.00 | 0.00 | 85 | 1014.6 |
| 20260510062020 | 50 | 29 | 4.0 | 9.0 | 0.00 | 0.00 | 0.00 | 86 | 1014.8 |
| 20260510061025 | 50 | 32 | 4.0 | 9.0 | 0.00 | 0.00 | 0.00 | 86 | 1014.5 |
| 20260510060020 | 50 | 46 | 5.0 | 10.0 | 0.00 | 0.00 | 0.00 | 87 | 1014.6 |
| 20260510055027 | 49 | 51 | 4.0 | 9.0 | 0.00 | 0.00 | 0.00 | 87 | 1014.5 |
| 20260510054035 | 49 | 38 | 4.0 | 10.0 | 0.00 | 0.00 | 0.00 | 87 | 1014.4 |
| 20260510053028 | 49 | 39 | 5.0 | 9.0 | 0.00 | 0.00 | 0.00 | 88 | 1014.5 |
| 20260510052019 | 49 | 37 | 4.0 | 9.0 | 0.00 | 0.00 | 0.00 | 88 | 1014.4 |
| 20260510051041 | 49 | 40 | 4.0 | 9.0 | 0.00 | 0.00 | 0.00 | 89 | 1014.3 |
| 20260510050018 | 49 | 20 | 4.0 | 10.0 | 0.00 | 0.00 | 0.00 | 89 | 1014.3 |
| 20260510045027 | 49 | 49 | 3.0 | 8.0 | 0.00 | 0.00 | 0.00 | 89 | 1014.3 |
| 20260510044020 | 49 | 49 | 3.0 | 9.0 | 0.00 | 0.00 | 0.00 | 89 | 1014.4 |
| 20260510043027 | 49 | 38 | 3.0 | 13.0 | 0.00 | 0.00 | 0.00 | 89 | 1014.3 |
| 20260510042034 | 49 | 46 | 3.0 | 7.0 | 0.00 | 0.00 | 0.00 | 89 | 1014.3 |
| 20260510041028 | 49 | 43 | 3.0 | 7.0 | 0.00 | 0.00 | 0.00 | 89 | 1014.3 |
| 20260510040039 | 49 | 44 | 4.0 | 9.0 | 0.00 | 0.00 | 0.00 | 89 | 1014.6 |
| 20260510035042 | 49 | 39 | 3.0 | 8.0 | 0.00 | 0.00 | 0.00 | 88 | 1014.6 |
| 20260510034019 | 49 | 43 | 4.0 | 8.0 | 0.00 | 0.00 | 0.00 | 88 | 1014.6 |
| 20260510033023 | 49 | 41 | 3.0 | 9.0 | 0.00 | 0.00 | 0.00 | 88 | 1014.7 |
| 20260510032018 | 49 | 52 | 4.0 | 9.0 | 0.00 | 0.00 | 0.00 | 88 | 1014.7 |
| 20260510031031 | 50 | 44 | 3.0 | 8.0 | 0.00 | 0.00 | 0.00 | 87 | 1014.6 |
| 20260510030034 | 50 | 30 | 4.0 | 11.0 | 0.00 | 0.00 | 0.00 | 86 | 1014.8 |
| 20260510025032 | 50 | 38 | 4.0 | 11.0 | 0.00 | 0.00 | 0.00 | 85 | 1014.8 |
| 20260510024017 | 50 | 34 | 5.0 | 11.0 | 0.00 | 0.00 | 0.00 | 84 | 1014.6 |
| 20260510023042 | 50 | 32 | 5.0 | 14.0 | 0.00 | 0.00 | 0.00 | 82 | 1014.8 |
| 20260510022021 | 50 | 32 | 5.0 | 10.0 | 0.00 | 0.00 | 0.00 | 78 | 1014.8 |
| 20260510021027 | 51 | 42 | 5.0 | 11.0 | 0.00 | 0.00 | 0.00 | 76 | 1014.9 |
| 20260510020035 | 51 | 40 | 4.0 | 9.0 | 0.00 | 0.00 | 0.00 | 74 | 1014.9 |
| 20260510015029 | 51 | 43 | 3.0 | 9.0 | 0.00 | 0.00 | 0.00 | 73 | 1014.8 |
| 20260510014020 | 52 | 31 | 4.0 | 9.0 | 0.00 | 0.00 | 0.00 | 72 | 1014.7 |
| 20260510013028 | 52 | 32 | 3.0 | 8.0 | 0.00 | 0.00 | 0.00 | 72 | 1014.8 |
| 20260510012039 | 52 | 37 | 2.0 | 8.0 | 0.00 | 0.00 | 0.00 | 71 | 1014.8 |
| 20260510011043 | 52 | 35 | 3.0 | 11.0 | 0.00 | 0.00 | 0.00 | 70 | 1014.8 |
| 20260510010040 | 52 | 39 | 4.0 | 8.0 | 0.00 | 0.00 | 0.00 | 70 | 1014.7 |
| 20260510005026 | 53 | 39 | 5.0 | 10.0 | 0.00 | 0.00 | 0.00 | 70 | 1014.7 |
| 20260510004021 | 52 | 38 | 2.0 | 7.0 | 0.00 | 0.00 | 0.00 | 71 | 1014.7 |
| 20260510003027 | 53 | 38 | 2.0 | 6.0 | 0.00 | 0.00 | 0.00 | 70 | 1014.8 |
| 20260510002056 | 53 | 36 | 4.0 | 7.0 | 0.00 | 0.00 | 0.00 | 69 | 1014.8 |
| 20260510001028 | 53 | 49 | 5.0 | 10.0 | 0.00 | 0.00 | 0.00 | 68 | 1014.8 |
| 20260510000018 | 53 | 45 | 3.0 | 10.0 | 0.00 | 0.00 | 0.00 | 67 | 1014.9 |
| 20260509235041 | 54 | 33 | 4.0 | 8.0 | 0.00 | 0.00 | 0.00 | 66 | 1015.0 |
| 20260509234019 | 53 | 29 | 3.0 | 6.0 | 0.00 | 0.00 | 0.00 | 66 | 1014.9 |
| 20260509233025 | 54 | 50 | 4.0 | 8.0 | 0.00 | 0.00 | 0.00 | 64 | 1014.9 |
| 20260509232039 | 54 | 39 | 3.0 | 6.0 | 0.00 | 0.00 | 0.00 | 64 | 1015.1 |
| 20260509231109 | 54 | 35 | 2.0 | 4.0 | 0.00 | 0.00 | 0.00 | 63 | 1014.7 |
| 20260509230033 | 54 | 22 | 1.0 | 3.0 | 0.00 | 0.00 | 0.00 | 62 | 1014.8 |
| 20260509225050 | 54 | 46 | 2.0 | 4.0 | 0.00 | 0.00 | 0.00 | 61 | 1014.9 |
| 20260509224040 | 55 | 36 | 3.0 | 6.0 | 0.00 | 0.00 | 0.00 | 60 | 1014.9 |
| 20260509223042 | 55 | 38 | 3.0 | 7.0 | 0.00 | 0.00 | 0.00 | 58 | 1015.0 |
| 20260509222040 | 55 | 41 | 2.0 | 6.0 | 0.00 | 0.00 | 0.00 | 56 | 1015.0 |
| 20260509221026 | 55 | 30 | 3.0 | 7.0 | 0.00 | 0.00 | 0.00 | 54 | 1015.0 |
| 20260509220020 | 55 | 34 | 3.0 | 6.0 | 0.00 | 0.00 | 0.00 | 52 | 1015.0 |
| 20260509215047 | 55 | 23 | 2.0 | 6.0 | 0.00 | 0.00 | 0.00 | 51 | 1015.0 |
| 20260509214034 | 55 | 28 | 2.0 | 4.0 | 0.00 | 0.00 | 0.00 | 50 | 1014.8 |
| 20260509213050 | 56 | 29 | 2.0 | 7.0 | 0.00 | 0.00 | 0.00 | 48 | 1015.1 |
| 20260509212018 | 56 | 16 | 3.0 | 7.0 | 0.00 | 0.00 | 0.00 | 47 | 1014.9 |
| 20260509211043 | 57 | 36 | 4.0 | 8.0 | 0.00 | 0.00 | 0.00 | 47 | 1014.6 |
| 20260509210019 | 57 | 27 | 1.0 | 4.0 | 0.00 | 0.00 | 0.00 | 48 | 1014.6 |
| 20260509205026 | 57 | 45 | 2.0 | 7.0 | 0.00 | 0.00 | 0.00 | 47 | 1014.5 |
| 20260509204020 | 58 | 40 | 3.0 | 8.0 | 0.00 | 0.00 | 0.00 | 47 | 1014.5 |
| 20260509203029 | 58 | 29 | 1.0 | 6.0 | 0.00 | 0.00 | 0.00 | 47 | 1014.4 |
| 20260509202055 | 59 | 31 | 2.0 | 6.0 | 0.00 | 0.00 | 0.00 | 46 | 1014.4 |
| 20260509201028 | 59 | 45 | 2.0 | 4.0 | 0.00 | 0.00 | 0.00 | 46 | 1014.2 |
| 20260509200024 | 59 | 44 | 2.0 | 4.0 | 0.00 | 0.00 | 0.00 | 46 | 1014.0 |
| 20260509195042 | 60 | 45 | 2.0 | 6.0 | 0.00 | 0.00 | 0.00 | 46 | 1014.3 |
| 20260509194034 | 60 | 48 | 2.0 | 4.0 | 0.00 | 0.00 | 0.00 | 46 | 1014.2 |
| 20260509193026 | 61 | 84 | 2.0 | 6.0 | 0.00 | 0.00 | 0.00 | 47 | 1014.0 |
| 20260509192018 | 61 | 70 | 2.0 | 6.0 | 0.00 | 0.00 | 0.00 | 46 | 1014.0 |
| 20260509191049 | 61 | 75 | 2.0 | 6.0 | 0.00 | 0.00 | 0.00 | 47 | 1013.9 |
| 20260509190034 | 62 | 64 | 5.0 | 14.0 | 0.00 | 0.00 | 0.00 | 46 | 1013.9 |
| 20260509185048 | 62 | 79 | 1.0 | 6.0 | 0.00 | 0.00 | 0.00 | 46 | 1014.0 |
| 20260509184018 | 63 | 68 | 3.0 | 8.0 | 0.00 | 0.00 | 0.00 | 44 | 1013.8 |
| 20260509183101 | 63 | 82 | 1.0 | 3.0 | 0.00 | 0.00 | 0.00 | 42 | 1013.8 |
| 20260509182018 | 64 | 73 | 3.0 | 11.0 | 0.00 | 0.00 | 0.00 | 42 | 1013.6 |
| 20260509181026 | 64 | 74 | 4.0 | 11.0 | 0.00 | 0.00 | 0.00 | 44 | 1013.7 |
| 20260509180020 | 65 | 81 | 2.0 | 9.0 | 0.00 | 0.00 | 0.00 | 45 | 1013.8 |
| 20260509175026 | 65 | 62 | 3.0 | 9.0 | 0.00 | 0.00 | 0.00 | 44 | 1013.4 |
| 20260509174055 | 65 | 55 | 3.0 | 9.0 | 0.00 | 0.00 | 0.00 | 44 | 1013.3 |
| 20260509173028 | 66 | 63 | 4.0 | 9.0 | 0.00 | 0.00 | 0.00 | 43 | 1013.4 |
| 20260509172017 | 67 | 71 | 4.0 | 10.0 | 0.00 | 0.00 | 0.00 | 43 | 1013.4 |
| 20260509171042 | 67 | 76 | 5.0 | 10.0 | 0.00 | 0.00 | 0.00 | 42 | 1013.3 |
| 20260509170019 | 68 | 70 | 4.0 | 10.0 | 0.00 | 0.00 | 0.00 | 42 | 1013.3 |
| 20260509165027 | 68 | 85 | 3.0 | 8.0 | 0.00 | 0.00 | 0.00 | 42 | 1013.2 |
| 20260509164021 | 68 | 78 | 4.0 | 10.0 | 0.00 | 0.00 | 0.00 | 42 | 1013.3 |
| 20260509163048 | 69 | 72 | 5.0 | 13.0 | 0.00 | 0.00 | 0.00 | 42 | 1013.5 |
| 20260509162033 | 69 | 76 | 3.0 | 8.0 | 0.00 | 0.00 | 0.00 | 42 | 1013.3 |
| 20260509161027 | 69 | 67 | 4.0 | 15.0 | 0.00 | 0.00 | 0.00 | 41 | 1013.3 |
| 20260509160018 | 70 | 72 | 2.0 | 6.0 | 0.00 | 0.00 | 0.00 | 41 | 1013.3 |
| 20260509155043 | 69 | 84 | 4.0 | 8.0 | 0.00 | 0.00 | 0.00 | 40 | 1013.4 |
| 20260509154019 | 70 | 91 | 3.0 | 8.0 | 0.00 | 0.00 | 0.00 | 40 | 1013.3 |
| 20260509153027 | 70 | 96 | 5.0 | 8.0 | 0.00 | 0.00 | 0.00 | 40 | 1013.5 |
| 20260509152041 | 70 | 106 | 3.0 | 7.0 | 0.00 | 0.00 | 0.00 | 40 | 1013.6 |
| 20260509151032 | 70 | 110 | 4.0 | 9.0 | 0.00 | 0.00 | 0.00 | 40 | 1013.6 |
| 20260509150025 | 70 | 78 | 3.0 | 7.0 | 0.00 | 0.00 | 0.00 | 41 | 1013.8 |
| 20260509145027 | 71 | 109 | 3.0 | 8.0 | 0.00 | 0.00 | 0.00 | 40 | 1013.7 |
| 20260509144021 | 70 | 52 | 3.0 | 8.0 | 0.00 | 0.00 | 0.00 | 42 | 1013.6 |
| 20260509143043 | 69 | 75 | 3.0 | 7.0 | 0.00 | 0.00 | 0.00 | 43 | 1013.6 |
| 20260509142101 | 69 | 47 | 6.0 | 14.0 | 0.00 | 0.00 | 0.00 | 43 | 1013.2 |
| 20260509141026 | 69 | 47 | 4.0 | 9.0 | 0.00 | 0.00 | 0.00 | 43 | 1013.3 |
| 20260509140019 | 69 | 48 | 5.0 | 8.0 | 0.00 | 0.00 | 0.00 | 44 | 1013.2 |
| 20260509135026 | 69 | 57 | 3.0 | 8.0 | 0.00 | 0.00 | 0.00 | 45 | 1013.0 |
| 20260509134056 | 69 | 69 | 4.0 | 9.0 | 0.00 | 0.00 | 0.00 | 44 | 1013.0 |
| 20260509133042 | 68 | 109 | 5.0 | 10.0 | 0.00 | 0.00 | 0.00 | 46 | 1013.2 |
| 20260509132018 | 68 | 73 | 4.0 | 10.0 | 0.00 | 0.00 | 0.00 | 47 | 1013.2 |
| 20260509131026 | 69 | 60 | 4.0 | 8.0 | 0.00 | 0.00 | 0.00 | 47 | 1013.2 |
| 20260509130019 | 68 | 92 | 4.0 | 9.0 | 0.00 | 0.00 | 0.00 | 48 | 1013.3 |